RH
40 37 36 41 40 36 40 46 62 49 37 33 32 34 37 40 39 39 41 45 46 46 46 43 44 46 48 49 47 50 48 44 49 48 45 44 45 44 43 42 36 34 35 36
60 46 40 49 40 38 41 42 44 43 44 34 34 37 42 43 44 46 50 49 51 54 48 39 39 45 51 43 46 53 48 47 42 43 40 39 40 39 36 34 33 35 36 38
85 60 62 85 52 38 37 40 40 51 38 39 43 46 47 47 48 57 61 58 61 54 37 39 42 53 43 40 46 50 44 40 42 43 37 37 32 30 32 36 39 41 40 42
99 92 92 46 33 34 41 38 32 34 41 46 46 46 41 52 63 79 73 56 45 38 35 38 43 41 40 38 43 44 42 40 42 39 36 32 32 33 36 37 39 40 43 44
100 73 53 42 39 43 45 44 39 47 49 50 46 44 48 70 81 67 63 49 40 35 35 37 42 39 41 41 40 40 41 43 44 38 37 32 33 36 38 39 40 42 44 45
93 99 93 49 39 40 42 57 51 64 76 77 55 84 89 64 72 63 42 37 34 30 33 40 44 40 44 43 42 42 44 49 39 38 36 33 36 39 40 38 40 44 54 55
91 97 70 42 44 44 84 80 68 80 82 82 84 90 78 71 53 35 33 32 31 28 30 36 38 42 48 41 40 36 39 40 40 37 34 35 37 38 40 41 52 76 89 75
96 100 96 43 45 83 65 76 83 80 71 70 71 70 54 40 34 30 32 30 27 30 31 34 37 44 43 35 31 36 40 41 41 37 34 33 39 40 42 47 62 80 90 84
65 67 43 42 52 53 68 79 71 74 63 68 63 46 37 34 31 31 31 28 28 32 38 36 35 42 40 32 37 45 42 42 40 38 38 38 40 46 46 48 70 74 60 64
73 56 49 54 50 59 70 78 76 73 56 50 46 38 35 32 31 34 28 29 33 35 36 41 41 49 43 42 43 41 42 40 40 41 44 43 43 44 43 60 71 58 59 58
76 64 58 51 64 77 74 78 79 54 46 40 34 34 32 31 31 29 30 34 35 38 40 37 38 57 50 48 42 36 39 41 45 50 51 50 45 43 52 59 66 65 61 64
97 70 71 71 72 69 81 68 49 43 38 32 32 34 32 30 30 31 35 39 38 40 43 40 41 45 49 45 48 51 51 49 55 62 60 56 45 46 71 69 68 66 68 74
73 65 64 68 69 59 55 44 39 36 34 36 34 30 31 36 35 44 38 39 42 48 48 48 54 59 49 69 78 82 70 71 63 69 61 58 60 61 64 58 68 69 68 67
69 70 72 60 59 50 47 38 42 37 37 35 32 34 36 37 38 38 42 47 53 53 54 54 54 60 60 61 68 89 79 88 70 64 63 66 70 70 68 71 74 70 63 61
63 61 59 53 49 44 39 39 43 37 33 37 36 40 43 44 44 50 54 61 63 63 53 49 59 60 56 66 64 64 68 67 82 81 79 79 77 73 70 69 67 66 60 55
54 52 48 48 44 41 40 35 36 40 40 38 42 48 48 49 52 60 73 77 90 80 70 91 97 72 68 60 56 54 60 78 78 73 74 72 71 72 68 68 66 68 64 67
65 64 56 50 36 37 38 40 42 43 53 53 62 76 67 77 88 83 80 90 99 97 98 100 95 62 65 58 60 55 61 64 84 68 68 72 74 72 70 71 70 69 69 79
43 39 37 38 40 45 51 53 61 65 67 66 90 92 91 92 92 94 96 100 100 97 98 93 92 69 70 57 66 63 70 76 76 76 73 77 75 73 75 74 69 70 72 70
36 35 40 44 49 58 59 60 69 80 91 94 95 95 94 94 94 97 96 100 100 98 84 96 88 82 65 78 73 67 80 86 78 70 79 79 82 77 76 80 77 76 73 70
38 41 48 53 60 71 81 82 95 85 80 89 95 96 98 96 97 98 100 100 98 83 92 84 82 82 86 78 83 63 79 91 80 84 86 82 84 84 84 81 81 78 80 79
54 55 79 92 89 95 94 94 94 92 88 94 97 96 97 99 100 100 100 93 90 100 92 87 81 62 58 65 66 85 92 96 94 91 88 84 84 84 84 86 84 81 80 81
54 76 100 95 92 88 91 94 92 97 96 95 93 94 97 99 100 99 100 98 88 90 80 80 69 75 62 89 69 98 86 88 89 92 91 87 84 85 85 86 86 85 81 82
59 66 75 93 95 79 88 96 97 99 97 98 97 99 97 92 92 98 93 96 84 92 86 91 86 87 88 100 100 100 98 93 93 91 92 85 84 84 84 83 84 83 83 80
63 69 72 85 97 95 95 70 82 94 100 99 97 95 96 99 99 91 98 99 93 96 99 100 96 88 87 100 100 100 98 97 95 96 91 88 88 86 85 84 85 83 82 83
86 80 80 96 87 68 65 66 78 84 83 84 92 90 97 92 100 99 100 100 94 98 100 96 88 88 100 100 100 95 90 91 93 94 92 93 91 88 85 84 85 86 83 84
68 64 62 69 73 66 67 68 80 80 82 94 91 95 100 100 100 98 100 99 99 95 100 100 100 100 100 100 98 94 92 87 90 88 89 87 86 86 86 86 85 84 85 84
69 83 74 72 66 68 72 74 88 93 94 100 97 97 95 100 100 99 99 100 100 100 100 100 100 98 98 97 93 94 93 91 87 88 86 87 88 87 86 87 86 86 86 86
Wind_Speed
7 11 13 11 13 12 14 14 11 14 14 14 13 12 10 4 11 15 13 12 12 11 11 12 9 8 7 7 7 6 6 8 6 6 6 7 9 10 10 10 10 11 11 11
4 8 10 12 14 14 13 12 13 14 16 6 7 7 6 12 14 13 11 12 12 11 14 11 10 11 7 9 7 6 6 4 5 7 8 8 9 10 11 11 10 11 11 11
4 9 13 6 3 4 3 4 8 10 9 7 6 9 12 16 14 9 11 11 12 13 13 12 13 9 11 10 5 6 6 5 6 7 8 8 10 11 11 11 11 12 11 11
3 5 4 3 5 9 13 13 8 9 3 5 9 15 17 7 7 8 10 13 13 12 14 15 13 12 10 8 7 7 7 7 7 7 8 9 10 10 11 11 12 11 10 11
2 4 15 13 5 2 2 11 3 3 8 14 18 16 6 4 4 12 12 13 14 15 17 17 13 12 10 9 8 8 9 7 8 7 8 9 10 11 11 11 11 11 10 12
3 4 5 3 4 4 4 8 4 10 15 17 18 12 4 15 10 12 14 13 14 16 16 15 11 11 10 11 10 10 8 9 8 7 8 9 10 11 10 11 11 9 11 13
6 6 8 5 5 1 4 4 11 6 5 8 6 4 12 8 11 12 13 14 15 16 15 15 14 11 11 10 9 7 7 8 9 7 8 9 10 11 11 12 10 7 9 10
3 4 7 2 2 3 5 5 1 3 4 7 7 8 9 11 13 14 14 16 17 16 16 16 15 11 11 9 7 7 9 10 8 7 7 7 11 11 12 12 10 9 9 9
8 7 3 6 7 3 2 4 6 2 4 6 7 9 11 12 13 13 15 16 16 16 17 16 14 12 11 9 7 8 10 9 8 7 7 9 11 11 11 9 7 9 10 10
6 10 11 10 4 4 1 1 2 5 3 5 9 10 13 14 14 14 15 15 15 17 17 17 15 11 10 9 9 10 11 8 7 7 7 10 8 8 8 7 7 9 9 10
11 13 11 4 1 3 3 4 5 5 5 7 8 12 14 14 15 14 15 14 14 15 16 18 16 10 7 10 10 9 8 6 6 5 7 8 7 6 6 6 6 8 8 9
4 4 6 4 3 8 6 7 4 4 6 8 11 14 15 14 14 14 15 15 15 17 17 17 13 11 9 6 7 7 6 5 4 5 5 5 6 7 8 4 3 6 9 8
5 5 6 3 2 5 3 2 4 7 9 13 14 13 14 15 15 15 15 16 16 16 16 15 13 10 6 5 5 4 5 4 5 4 5 5 5 6 7 2 6 2 4 10
4 4 2 5 2 2 2 4 7 11 13 14 14 13 15 16 18 17 17 17 15 15 15 11 7 7 5 5 4 3 5 3 4 4 3 5 5 5 5 7 8 7 4 5
3 2 1 5 3 3 6 8 12 13 14 15 14 15 16 18 18 17 15 14 14 14 13 9 7 7 5 4 4 6 6 5 4 3 3 4 4 5 5 6 7 6 6 6
7 6 4 1 4 6 9 11 13 14 14 16 16 16 16 16 16 15 13 11 11 11 10 6 5 5 3 5 6 4 5 1 3 3 4 4 4 5 5 6 6 6 6 7
6 4 2 4 7 9 10 10 11 13 15 15 15 13 15 14 12 12 12 7 9 9 8 6 6 4 4 5 5 5 3 3 2 3 4 4 4 4 5 5 5 5 5 5
4 2 2 6 8 9 10 11 10 11 12 15 12 10 10 10 13 13 10 7 7 8 7 6 4 4 4 5 4 5 4 2 3 3 3 4 4 4 4 5 5 5 4 3
1 4 6 7 7 8 10 11 11 11 10 10 11 12 11 12 13 12 7 7 9 9 5 6 5 4 4 1 3 3 3 3 3 2 3 4 4 4 4 4 5 4 4 4
5 7 8 9 8 6 9 9 9 11 11 10 10 11 12 11 12 12 9 10 10 7 3 7 7 5 4 4 4 4 4 4 5 2 3 4 4 5 4 4 4 4 4 4
8 9 7 7 8 7 8 8 8 10 11 9 10 12 12 12 11 10 9 9 5 5 8 8 7 4 4 3 5 3 4 4 4 3 3 4 5 5 4 4 4 4 4 4
8 7 6 7 8 10 8 7 8 10 10 10 10 10 12 12 11 9 8 9 6 5 5 6 6 4 3 4 3 2 4 4 4 3 4 4 5 5 5 4 4 4 4 3
9 9 8 8 8 11 10 9 9 9 9 9 11 12 12 10 9 9 9 3 6 6 6 5 4 6 5 4 4 4 3 3 4 3 3 4 4 5 5 5 4 5 4 4
10 9 9 7 6 8 11 12 9 9 6 9 9 9 11 10 9 7 5 5 4 5 5 5 6 8 6 4 4 5 5 5 5 5 5 4 5 4 5 5 5 5 4 4
8 8 8 7 8 8 10 11 10 9 11 10 9 10 11 9 6 7 4 4 6 7 6 7 9 8 5 4 4 4 4 4 4 5 5 5 5 5 5 5 5 5 5 5
9 8 8 8 8 8 8 8 8 9 9 8 8 8 8 7 4 5 5 5 5 6 6 5 6 6 6 6 5 5 4 4 4 4 5 5 6 6 6 6 6 6 6 6
9 6 6 7 6 7 7 8 9 9 7 7 10 9 8 8 6 5 5 5 5 5 5 5 5 7 6 6 6 5 4 4 4 4 4 4 4 5 6 6 6 6 6 5
Wind_Direction
291 292 290 285 275 266 249 248 263 273 300 316 329 331 332 321 324 329 332 338 332 325 330 312 308 310 313 314 322 319 325 331 344 345 326 309 313 326 332 322 318 320 315 317
286 299 294 293 270 262 256 254 260 274 284 4 337 325 334 331 323 323 329 339 337 317 302 304 314 319 323 317 308 263 315 305 317 325 328 335 327 319 322 324 328 321 322 321
282 316 316 274 237 164 263 203 282 291 338 334 344 332 327 325 330 338 342 329 304 307 306 322 317 310 312 317 281 265 302 268 317 323 328 329 327 327 328 325 323 322 324 327
291 299 269 54 299 288 292 291 285 276 304 325 322 327 321 15 357 350 316 309 311 313 316 318 313 310 312 301 274 278 286 280 310 324 316 324 323 324 321 320 320 321 324 323
260 262 298 291 79 80 278 293 1 357 339 332 325 323 10 51 250 310 301 305 310 313 315 312 301 316 307 296 284 283 279 297 303 301 309 316 316 319 320 321 319 322 322 321
185 251 263 26 61 331 297 263 58 354 340 318 326 314 318 327 322 300 312 315 317 320 315 307 301 303 288 289 288 289 293 276 289 292 298 306 314 318 322 318 316 328 328 319
236 252 270 329 59 250 283 18 340 344 320 329 317 257 308 305 288 306 317 315 323 316 317 312 304 295 283 295 290 291 285 280 280 286 293 302 311 317 321 322 320 331 305 310
200 257 263 102 290 265 333 347 259 242 302 301 303 305 304 308 314 317 317 322 326 322 321 318 309 291 284 293 290 297 296 291 279 284 294 301 313 317 321 317 332 319 312 309
197 241 265 299 296 287 169 219 267 288 307 300 290 309 316 313 316 320 322 324 327 325 319 317 311 286 276 296 311 306 295 286 280 287 292 302 316 323 317 332 333 318 317 325
274 259 270 297 318 235 263 105 151 231 278 264 299 315 317 322 322 321 322 322 327 322 323 321 317 301 290 309 306 294 286 290 289 291 320 310 324 318 325 339 327 319 326 328
279 279 291 270 9 60 204 158 214 239 273 301 316 317 318 315 316 319 315 321 322 321 320 319 317 319 311 317 307 300 306 301 302 300 308 319 322 343 331 354 351 330 334 328
248 285 271 282 332 287 215 220 248 287 302 311 313 311 314 313 317 314 320 317 317 322 324 319 319 313 328 336 329 317 304 305 332 314 324 323 332 324 138 105 4 346 346 338
279 201 246 285 132 197 244 310 315 308 299 300 306 311 313 309 307 313 303 315 316 318 318 319 318 315 330 337 336 331 323 329 320 291 318 336 329 334 330 351 175 207 357 344
77 107 214 188 213 149 298 283 280 295 301 300 300 306 308 311 311 313 314 319 316 314 315 321 304 312 314 328 320 308 303 229 302 324 327 333 343 336 331 337 327 342 25 355
79 181 95 123 158 232 271 307 306 302 311 313 310 307 312 311 313 315 316 315 314 311 305 311 313 306 330 320 316 335 321 320 333 336 318 327 316 329 333 330 332 342 342 356
150 135 145 196 308 316 314 309 310 312 317 318 312 313 313 312 310 314 312 305 306 308 307 311 280 279 294 307 314 317 327 86 300 325 326 332 330 333 341 335 331 343 351 358
151 184 229 290 309 307 302 305 310 314 312 311 310 314 313 307 298 294 301 290 289 280 280 271 271 288 302 288 309 314 310 306 339 303 343 343 330 334 338 334 333 337 358 28
87 69 298 293 297 301 305 312 308 305 301 308 301 298 297 293 292 292 290 283 288 281 263 254 233 257 279 299 330 328 305 274 282 324 327 333 334 318 328 328 329 332 351 16
288 293 296 292 296 302 303 303 302 298 292 291 297 300 298 289 289 282 284 266 281 279 273 188 197 239 285 214 283 307 292 271 277 303 323 316 292 303 310 320 328 327 336 343
291 286 288 290 298 290 291 286 283 294 298 302 296 295 295 299 299 295 274 270 279 274 151 187 200 208 217 217 238 284 283 270 268 263 289 310 305 303 301 283 302 317 319 329
289 288 276 277 279 271 252 262 272 285 297 292 282 286 286 291 291 290 278 274 285 198 208 195 218 241 239 244 243 292 284 259 247 259 290 310 309 296 293 294 306 309 313 313
291 288 264 269 270 281 275 264 268 272 277 283 285 283 290 295 299 289 262 257 273 185 199 204 222 201 255 198 259 283 279 266 273 273 264 284 311 304 297 298 299 310 310 305
285 277 273 266 268 287 296 283 272 263 273 291 305 306 302 296 296 287 293 251 233 204 208 204 178 188 202 222 229 239 257 258 272 277 282 282 297 299 295 299 301 297 298 299
274 271 275 280 278 284 290 308 307 295 270 285 286 286 291 293 292 285 276 241 242 178 206 180 192 201 206 225 233 240 255 268 266 265 261 258 274 284 281 286 288 288 283 263
262 275 279 271 274 281 303 307 309 300 299 307 303 298 302 290 269 299 260 262 239 213 203 198 206 203 217 233 233 246 257 264 272 285 285 269 265 276 282 281 276 278 279 267
277 277 283 276 271 291 296 303 300 301 304 302 304 303 308 287 276 270 256 244 230 210 217 203 196 198 216 225 233 240 246 261 274 277 282 278 270 269 274 278 279 275 268 265
273 252 268 266 266 281 286 300 301 292 293 292 296 301 304 301 274 261 250 238 230 225 217 208 206 214 226 223 224 225 227 241 262 281 281 282 283 283 283 281 281 281 272 259